TimeMST,TemperatureF,Dew PointF,Humidity,Sea Level PressureIn,VisibilityMPH,Wind Direction,Wind SpeedMPH,Gust SpeedMPH,PrecipitationIn,Events,Conditions,WindDirDegrees,DateUTC
12:27 AM,-9999,-9999,N/A,-9999,-9999.0,North,-9999.0,-,N/A,,Unknown,0,2013-07-27 07:27:00
12:57 AM,91.0,57.9,33,29.86,10.0,SSE,8.1,-,N/A,,Scattered Clouds,150,2013-07-27 07:57:00
1:57 AM,90.0,59.0,35,29.85,10.0,SSE,9.2,-,N/A,,Scattered Clouds,150,2013-07-27 08:57:00
2:57 AM,90.0,55.9,31,29.84,10.0,SE,10.4,-,N/A,,Scattered Clouds,140,2013-07-27 09:57:00
3:57 AM,90.0,52.0,27,29.84,10.0,SE,5.8,-,N/A,,Partly Cloudy,130,2013-07-27 10:57:00
4:57 AM,88.0,55.0,32,29.86,10.0,Calm,Calm,-,N/A,,Scattered Clouds,0,2013-07-27 11:57:00
5:57 AM,89.1,55.0,31,29.86,10.0,Calm,Calm,-,N/A,,Mostly Cloudy,0,2013-07-27 12:57:00
6:57 AM,91.0,55.0,29,29.86,10.0,SSE,4.6,-,N/A,,Mostly Cloudy,150,2013-07-27 13:57:00
7:57 AM,90.0,62.1,39,29.86,10.0,South,6.9,-,N/A,,Scattered Clouds,190,2013-07-27 14:57:00
8:57 AM,93.9,63.0,36,29.87,10.0,SSW,9.2,-,N/A,,Scattered Clouds,200,2013-07-27 15:57:00
9:57 AM,97.0,62.1,31,29.86,10.0,SSW,9.2,-,N/A,,Scattered Clouds,210,2013-07-27 16:57:00
10:57 AM,100.0,59.0,26,29.85,10.0,SSW,6.9,-,N/A,,Scattered Clouds,200,2013-07-27 17:57:00
11:57 AM,102.0,60.1,25,29.83,10.0,Variable,4.6,-,N/A,,Mostly Cloudy,0,2013-07-27 18:57:00
12:00 PM,-9999,-9999,N/A,-9999,-9999.0,North,-9999.0,-,N/A,,Unknown,0,2013-07-27 19:00:00
12:57 PM,104.0,60.1,24,29.80,10.0,SSW,8.1,-,N/A,,Mostly Cloudy,200,2013-07-27 19:57:00
1:57 PM,106.0,57.9,21,29.78,10.0,SSE,6.9,-,N/A,,Mostly Cloudy,150,2013-07-27 20:57:00
2:57 PM,107.1,59.0,21,29.74,10.0,SSE,9.2,-,N/A,,Scattered Clouds,150,2013-07-27 21:57:00
3:57 PM,107.1,57.9,20,29.70,10.0,SSW,8.1,-,N/A,,Scattered Clouds,210,2013-07-27 22:57:00
4:57 PM,108.0,57.9,19,29.68,10.0,Variable,4.6,-,N/A,,Scattered Clouds,0,2013-07-27 23:57:00
5:57 PM,108.0,57.9,19,29.67,10.0,SSW,8.1,-,N/A,,Partly Cloudy,200,2013-07-28 00:57:00
6:57 PM,106.0,53.1,17,29.68,10.0,SSW,16.1,21.9,N/A,,Partly Cloudy,210,2013-07-28 01:57:00
7:57 PM,100.0,53.1,21,29.69,10.0,SSW,10.4,-,N/A,,Partly Cloudy,200,2013-07-28 02:57:00
8:57 PM,97.0,54.0,23,29.70,10.0,SSW,8.1,-,N/A,,Partly Cloudy,210,2013-07-28 03:57:00
9:57 PM,96.1,55.9,26,29.73,10.0,WSW,5.8,-,N/A,,Partly Cloudy,250,2013-07-28 04:57:00
10:57 PM,93.9,57.9,30,29.73,10.0,SW,5.8,-,N/A,,Partly Cloudy,230,2013-07-28 05:57:00
11:57 PM,91.0,60.1,35,29.73,10.0,South,4.6,-,N/A,,Partly Cloudy,170,2013-07-28 06:57:00